﻿測定場所 (Monitoring sites),日付 (Measurement date),時間 (Measurement time),線量率 最大値 (max) μGy/h,線量率 最小値 (min) μGy/h,線量率 平均値 (average) μGy/h,
江戸川 (Edogawa),2013-10-06,23:01～24:00,0.0876,0.0754,0.0814,
江戸川 (Edogawa),2013-10-06,22:01～23:00,0.0906,0.0768,0.0812,
江戸川 (Edogawa),2013-10-06,21:01～22:00,0.0886,0.0756,0.0818,
江戸川 (Edogawa),2013-10-06,20:01～21:00,0.0869,0.0747,0.0814,
江戸川 (Edogawa),2013-10-06,19:01～20:00,0.0888,0.0749,0.0812,
江戸川 (Edogawa),2013-10-06,18:01～19:00,0.0876,0.0773,0.0816,
江戸川 (Edogawa),2013-10-06,17:01～18:00,0.0870,0.0751,0.0807,
江戸川 (Edogawa),2013-10-06,16:01～17:00,0.0856,0.0763,0.0809,
江戸川 (Edogawa),2013-10-06,15:01～16:00,0.0863,0.0747,0.0804,
江戸川 (Edogawa),2013-10-06,14:01～15:00,0.0876,0.0750,0.0815,
江戸川 (Edogawa),2013-10-06,13:01～14:00,0.0869,0.0752,0.0812,
江戸川 (Edogawa),2013-10-06,12:01～13:00,0.0858,0.0744,0.0809,
江戸川 (Edogawa),2013-10-06,11:01～12:00,0.0883,0.0768,0.0815,
江戸川 (Edogawa),2013-10-06,10:01～11:00,0.0858,0.0754,0.0810,
江戸川 (Edogawa),2013-10-06,09:01～10:00,0.0878,0.0737,0.0809,
江戸川 (Edogawa),2013-10-06,08:01～09:00,0.0878,0.0751,0.0810,
江戸川 (Edogawa),2013-10-06,07:01～08:00,0.0874,0.0737,0.0810,
江戸川 (Edogawa),2013-10-06,06:01～07:00,0.0878,0.0746,0.0810,
江戸川 (Edogawa),2013-10-06,05:01～06:00,0.0858,0.0752,0.0811,
江戸川 (Edogawa),2013-10-06,04:01～05:00,0.0871,0.0734,0.0810,
江戸川 (Edogawa),2013-10-06,03:01～04:00,0.0860,0.0744,0.0809,
江戸川 (Edogawa),2013-10-06,02:01～03:00,0.0847,0.0735,0.0809,
江戸川 (Edogawa),2013-10-06,01:01～02:00,0.0936,0.0758,0.0824,
江戸川 (Edogawa),2013-10-06,00:01～01:00,0.0899,0.0770,0.0828,
江戸川 (Edogawa),2013-10-05,23:01～24:00,0.0889,0.0788,0.0832,
江戸川 (Edogawa),2013-10-05,22:01～23:00,0.0904,0.0783,0.0845,
江戸川 (Edogawa),2013-10-05,21:01～22:00,0.0883,0.0786,0.0842,
江戸川 (Edogawa),2013-10-05,20:01～21:00,0.0902,0.0754,0.0834,
江戸川 (Edogawa),2013-10-05,19:01～20:00,0.0879,0.0780,0.0819,
江戸川 (Edogawa),2013-10-05,18:01～19:00,0.0872,0.0786,0.0827,
江戸川 (Edogawa),2013-10-05,17:01～18:00,0.0929,0.0811,0.0850,
江戸川 (Edogawa),2013-10-05,16:01～17:00,0.0928,0.0809,0.0854,
江戸川 (Edogawa),2013-10-05,15:01～16:00,0.0907,0.0802,0.0850,
江戸川 (Edogawa),2013-10-05,14:01～15:00,0.0892,0.0773,0.0839,
江戸川 (Edogawa),2013-10-05,13:01～14:00,0.0886,0.0776,0.0824,
江戸川 (Edogawa),2013-10-05,12:01～13:00,0.0883,0.0787,0.0824,
江戸川 (Edogawa),2013-10-05,11:01～12:00,0.0884,0.0784,0.0830,
江戸川 (Edogawa),2013-10-05,10:01～11:00,0.0879,0.0755,0.0815,
江戸川 (Edogawa),2013-10-05,09:01～10:00,0.0861,0.0762,0.0815,
江戸川 (Edogawa),2013-10-05,08:01～09:00,0.0887,0.0741,0.0810,
江戸川 (Edogawa),2013-10-05,07:01～08:00,0.0902,0.0768,0.0834,
江戸川 (Edogawa),2013-10-05,06:01～07:00,0.0948,0.0785,0.0881,
江戸川 (Edogawa),2013-10-05,05:01～06:00,0.0947,0.0839,0.0895,
江戸川 (Edogawa),2013-10-05,04:01～05:00,0.0974,0.0830,0.0904,
江戸川 (Edogawa),2013-10-05,03:01～04:00,0.0968,0.0813,0.0885,
江戸川 (Edogawa),2013-10-05,02:01～03:00,0.0899,0.0790,0.0841,
江戸川 (Edogawa),2013-10-05,01:01～02:00,0.0918,0.0779,0.0837,
江戸川 (Edogawa),2013-10-05,00:01～01:00,0.0909,0.0803,0.0848,
江戸川 (Edogawa),2013-10-04,23:01～24:00,0.0919,0.0795,0.0849,
江戸川 (Edogawa),2013-10-04,22:01～23:00,0.0901,0.0777,0.0833,
江戸川 (Edogawa),2013-10-04,21:01～22:00,0.0899,0.0773,0.0828,
江戸川 (Edogawa),2013-10-04,20:01～21:00,0.0873,0.0770,0.0824,
江戸川 (Edogawa),2013-10-04,19:01～20:00,0.0870,0.0749,0.0822,
江戸川 (Edogawa),2013-10-04,18:01～19:00,0.0864,0.0762,0.0817,
江戸川 (Edogawa),2013-10-04,17:01～18:00,0.0886,0.0738,0.0822,
江戸川 (Edogawa),2013-10-04,16:01～17:00,0.0877,0.0777,0.0827,
江戸川 (Edogawa),2013-10-04,15:01～16:00,0.0897,0.0782,0.0838,
江戸川 (Edogawa),2013-10-04,14:01～15:00,0.0867,0.0763,0.0818,
江戸川 (Edogawa),2013-10-04,13:01～14:00,0.0870,0.0766,0.0823,
江戸川 (Edogawa),2013-10-04,12:01～13:00,0.0917,0.0789,0.0838,
江戸川 (Edogawa),2013-10-04,11:01～12:00,0.0911,0.0794,0.0845,
江戸川 (Edogawa),2013-10-04,10:01～11:00,0.0881,0.0767,0.0823,
江戸川 (Edogawa),2013-10-04,09:01～10:00,0.0869,0.0776,0.0815,
江戸川 (Edogawa),2013-10-04,08:01～09:00,0.0877,0.0759,0.0818,
江戸川 (Edogawa),2013-10-04,07:01～08:00,0.0876,0.0778,0.0818,
江戸川 (Edogawa),2013-10-04,06:01～07:00,0.0869,0.0773,0.0823,
江戸川 (Edogawa),2013-10-04,05:01～06:00,0.0886,0.0746,0.0831,
江戸川 (Edogawa),2013-10-04,04:01～05:00,0.0880,0.0782,0.0829,
江戸川 (Edogawa),2013-10-04,03:01～04:00,0.0877,0.0782,0.0827,
江戸川 (Edogawa),2013-10-04,02:01～03:00,0.0892,0.0768,0.0823,
江戸川 (Edogawa),2013-10-04,01:01～02:00,0.0870,0.0776,0.0827,
江戸川 (Edogawa),2013-10-04,00:01～01:00,0.0898,0.0812,0.0841,
江戸川 (Edogawa),2013-10-03,23:01～24:00,0.0887,0.0758,0.0834,
江戸川 (Edogawa),2013-10-03,22:01～23:00,0.0900,0.0768,0.0837,
江戸川 (Edogawa),2013-10-03,21:01～22:00,0.0872,0.0777,0.0828,
江戸川 (Edogawa),2013-10-03,20:01～21:00,0.0881,0.0764,0.0826,
江戸川 (Edogawa),2013-10-03,19:01～20:00,0.0874,0.0788,0.0822,
江戸川 (Edogawa),2013-10-03,18:01～19:00,0.0877,0.0768,0.0821,
江戸川 (Edogawa),2013-10-03,17:01～18:00,0.0904,0.0758,0.0823,
江戸川 (Edogawa),2013-10-03,16:01～17:00,0.0884,0.0763,0.0822,
江戸川 (Edogawa),2013-10-03,15:01～16:00,0.0888,0.0774,0.0828,
江戸川 (Edogawa),2013-10-03,14:01～15:00,0.0879,0.0764,0.0818,
江戸川 (Edogawa),2013-10-03,13:01～14:00,0.0894,0.0748,0.0823,
江戸川 (Edogawa),2013-10-03,12:01～13:00,0.0884,0.0770,0.0824,
江戸川 (Edogawa),2013-10-03,11:01～12:00,0.0878,0.0770,0.0821,
江戸川 (Edogawa),2013-10-03,10:01～11:00,0.0879,0.0776,0.0821,
江戸川 (Edogawa),2013-10-03,09:01～10:00,0.0883,0.0770,0.0821,
江戸川 (Edogawa),2013-10-03,08:01～09:00,0.0877,0.0758,0.0829,
江戸川 (Edogawa),2013-10-03,07:01～08:00,0.0903,0.0771,0.0823,
江戸川 (Edogawa),2013-10-03,06:01～07:00,0.0884,0.0752,0.0818,
江戸川 (Edogawa),2013-10-03,05:01～06:00,0.0862,0.0765,0.0816,
江戸川 (Edogawa),2013-10-03,04:01～05:00,0.0877,0.0765,0.0820,
江戸川 (Edogawa),2013-10-03,03:01～04:00,0.0875,0.0759,0.0823,
江戸川 (Edogawa),2013-10-03,02:01～03:00,0.0882,0.0772,0.0824,
江戸川 (Edogawa),2013-10-03,01:01～02:00,0.0873,0.0755,0.0819,
江戸川 (Edogawa),2013-10-03,00:01～01:00,0.0884,0.0758,0.0822,
江戸川 (Edogawa),2013-10-02,23:01～24:00,0.0870,0.0763,0.0816,
江戸川 (Edogawa),2013-10-02,22:01～23:00,0.0870,0.0760,0.0814,
江戸川 (Edogawa),2013-10-02,21:01～22:00,0.0895,0.0767,0.0814,
江戸川 (Edogawa),2013-10-02,20:01～21:00,0.0862,0.0761,0.0811,
江戸川 (Edogawa),2013-10-02,19:01～20:00,0.0869,0.0748,0.0805,
江戸川 (Edogawa),2013-10-02,18:01～19:00,0.0867,0.0754,0.0810,
江戸川 (Edogawa),2013-10-02,17:01～18:00,0.0865,0.0755,0.0807,
江戸川 (Edogawa),2013-10-02,16:01～17:00,0.0885,0.0767,0.0809,
江戸川 (Edogawa),2013-10-02,15:01～16:00,0.0870,0.0761,0.0812,
江戸川 (Edogawa),2013-10-02,14:01～15:00,0.0891,0.0761,0.0823,
江戸川 (Edogawa),2013-10-02,13:01～14:00,0.0886,0.0763,0.0818,
江戸川 (Edogawa),2013-10-02,12:01～13:00,0.0888,0.0784,0.0824,
江戸川 (Edogawa),2013-10-02,11:01～12:00,0.0889,0.0770,0.0825,
江戸川 (Edogawa),2013-10-02,10:01～11:00,0.0883,0.0785,0.0842,
江戸川 (Edogawa),2013-10-02,09:01～10:00,0.0877,0.0774,0.0830,
江戸川 (Edogawa),2013-10-02,08:01～09:00,0.0938,0.0801,0.0858,
江戸川 (Edogawa),2013-10-02,07:01～08:00,0.0898,0.0754,0.0839,
江戸川 (Edogawa),2013-10-02,06:01～07:00,0.0923,0.0812,0.0866,
江戸川 (Edogawa),2013-10-02,05:01～06:00,0.0896,0.0781,0.0844,
江戸川 (Edogawa),2013-10-02,04:01～05:00,0.0899,0.0767,0.0836,
江戸川 (Edogawa),2013-10-02,03:01～04:00,0.0860,0.0732,0.0816,
江戸川 (Edogawa),2013-10-02,02:01～03:00,0.0861,0.0755,0.0813,
江戸川 (Edogawa),2013-10-02,01:01～02:00,0.0878,0.0755,0.0817,
江戸川 (Edogawa),2013-10-02,00:01～01:00,0.0884,0.0767,0.0818,
江戸川 (Edogawa),2013-10-01,23:01～24:00,0.0864,0.0773,0.0816,
江戸川 (Edogawa),2013-10-01,22:01～23:00,0.0863,0.0753,0.0814,
江戸川 (Edogawa),2013-10-01,21:01～22:00,0.0886,0.0764,0.0820,
江戸川 (Edogawa),2013-10-01,20:01～21:00,0.0855,0.0764,0.0813,
江戸川 (Edogawa),2013-10-01,19:01～20:00,0.0872,0.0767,0.0812,
江戸川 (Edogawa),2013-10-01,18:01～19:00,0.0892,0.0784,0.0820,
江戸川 (Edogawa),2013-10-01,17:01～18:00,0.0889,0.0727,0.0825,
江戸川 (Edogawa),2013-10-01,16:01～17:00,0.0876,0.0744,0.0833,
江戸川 (Edogawa),2013-10-01,15:01～16:00,0.0873,0.0776,0.0828,
江戸川 (Edogawa),2013-10-01,14:01～15:00,0.0896,0.0771,0.0828,
江戸川 (Edogawa),2013-10-01,13:01～14:00,0.0875,0.0768,0.0824,
江戸川 (Edogawa),2013-10-01,12:01～13:00,0.0896,0.0776,0.0829,
江戸川 (Edogawa),2013-10-01,11:01～12:00,0.0870,0.0794,0.0834,
江戸川 (Edogawa),2013-10-01,10:01～11:00,0.0908,0.0775,0.0833,
江戸川 (Edogawa),2013-10-01,09:01～10:00,0.0898,0.0750,0.0824,
江戸川 (Edogawa),2013-10-01,08:01～09:00,0.0875,0.0778,0.0818,
江戸川 (Edogawa),2013-10-01,07:01～08:00,0.0879,0.0778,0.0830,
江戸川 (Edogawa),2013-10-01,06:01～07:00,0.0870,0.0763,0.0818,
江戸川 (Edogawa),2013-10-01,05:01～06:00,0.0887,0.0793,0.0840,
江戸川 (Edogawa),2013-10-01,04:01～05:00,0.0891,0.0791,0.0849,
江戸川 (Edogawa),2013-10-01,03:01～04:00,0.0895,0.0808,0.0851,
江戸川 (Edogawa),2013-10-01,02:01～03:00,0.0916,0.0792,0.0856,
江戸川 (Edogawa),2013-10-01,01:01～02:00,0.0894,0.0809,0.0848,
江戸川 (Edogawa),2013-10-01,00:01～01:00,0.0902,0.0799,0.0848,
江戸川 (Edogawa),2013-09-30,23:01～24:00,0.0928,0.0792,0.0849,
江戸川 (Edogawa),2013-09-30,22:01～23:00,0.0902,0.0787,0.0841,
江戸川 (Edogawa),2013-09-30,21:01～22:00,0.0890,0.0781,0.0839,
江戸川 (Edogawa),2013-09-30,20:01～21:00,0.0895,0.0792,0.0842,
江戸川 (Edogawa),2013-09-30,19:01～20:00,0.0901,0.0754,0.0845,
江戸川 (Edogawa),2013-09-30,18:01～19:00,0.0898,0.0784,0.0835,
江戸川 (Edogawa),2013-09-30,17:01～18:00,0.0912,0.0773,0.0839,
江戸川 (Edogawa),2013-09-30,16:01～17:00,0.0895,0.0796,0.0843,
江戸川 (Edogawa),2013-09-30,15:01～16:00,0.0898,0.0806,0.0847,
江戸川 (Edogawa),2013-09-30,14:01～15:00,0.0896,0.0792,0.0840,
江戸川 (Edogawa),2013-09-30,13:01～14:00,0.0895,0.0782,0.0841,
江戸川 (Edogawa),2013-09-30,12:01～13:00,0.0900,0.0785,0.0847,
江戸川 (Edogawa),2013-09-30,11:01～12:00,0.0905,0.0795,0.0844,
江戸川 (Edogawa),2013-09-30,10:01～11:00,0.0912,0.0775,0.0838,
江戸川 (Edogawa),2013-09-30,09:01～10:00,0.0897,0.0793,0.0839,
江戸川 (Edogawa),2013-09-30,08:01～09:00,0.0902,0.0788,0.0843,
江戸川 (Edogawa),2013-09-30,07:01～08:00,0.0920,0.0793,0.0843,
江戸川 (Edogawa),2013-09-30,06:01～07:00,0.0905,0.0790,0.0838,
江戸川 (Edogawa),2013-09-30,05:01～06:00,0.0906,0.0775,0.0836,
江戸川 (Edogawa),2013-09-30,04:01～05:00,0.0918,0.0796,0.0843,
江戸川 (Edogawa),2013-09-30,03:01～04:00,0.0886,0.0786,0.0840,
江戸川 (Edogawa),2013-09-30,02:01～03:00,0.0902,0.0780,0.0840,
江戸川 (Edogawa),2013-09-30,01:01～02:00,0.0896,0.0759,0.0838,
江戸川 (Edogawa),2013-09-30,00:01～01:00,0.0892,0.0784,0.0839,
